dimanche 08 juillet 2018

le classement original se trouve sur : http://www.inedichrono.be    
CHALLENGE HAUTE ARDENNE DE TRAIL
LE TRAIL D'OSTER - OSTER-MANHAY
DISTANCE 35.71 km
dimanche 08 juillet 2018
 
Place dos NOM Catégorie Pl/cat temps temps/km Vitesse
1 608 WAUMANS SIL S 1 03:01:35 05:05 11.80
2 507 BONGERS DIMITRI S 2 03:07:37 05:15 11.42
3 632 SERVAIS ANTHONY S 3 03:12:54 05:24 11.11
4 653 MARTIN ANTOINE S 4 03:30:57 05:54 10.16
5 650 ALBERT GRÉGORY V1 1 03:32:03 05:56 10.10
6 543 HEMMER LUCIEN V1 2 03:35:56 06:03 9.92
7 609 WENDERS STEPHANE S 5 03:40:40 06:11 9.71
8 558 LEENS PIERROT V2 1 03:45:35 06:19 9.50
9 616 HELBERS JOOP V1 3 03:45:59 06:20 9.48
10 550 LACROIX ANTOINE S 6 03:46:03 06:20 9.48
11 501 ADLER JAN V2 2 03:46:13 06:20 9.47
12 589 STRAPE SYLVAIN S 7 03:46:57 06:21 9.44
13 652 TOUSSAINT MAXIME S 8 03:47:34 06:22 9.42
14 622 BOSMANS ERIC V1 4 03:47:45 06:23 9.41
15 642 GUEUNING BENOIT S 9 03:47:48 06:23 9.41
16 666 KLOCKER MARTIN V2 3 03:48:46 06:24 9.37
17 607 WAUMANS BART V2 4 03:50:17 06:27 9.30
18 542 HEINS FRÉDÉRIC S 10 03:51:17 06:29 9.26
19 613 GODTS GEERT V1 5 03:51:17 06:29 9.26
20 625 GREGOIRE THIBAUT S 11 03:51:35 06:29 9.25
21 618 DANCETTE ELODIE D 1 03:51:47 06:29 9.24
22 636 CHAMBEAU CAROLE A1 1 03:54:29 06:34 9.14
23 646 HAYNS CHRISTOPHE V1 6 03:55:13 06:35 9.11
24 654 SCHMETZ BERNARD V2 5 03:55:28 06:36 9.10
25 540 GUILLAUME CÉDRIC S 12 03:57:54 06:40 9.01
26 626 WERGIFOSSE JORDAN S 13 03:59:00 06:42 8.97
27 620 SIMONS JORG V1 7 04:00:59 06:45 8.89
28 614 LAFFINEUSE CHRISTOPHE S 14 04:03:40 06:49 8.79
29 591 THEATE BENOIT V2 6 04:04:59 06:52 8.75
30 669 BARTHELEMY STEPHANE V1 8 04:06:07 06:54 8.71
31 544 HENRARD CÉDRIC S 15 04:06:58 06:55 8.68
32 637 MOUREAU JORDAN S 16 04:06:58 06:55 8.68
33 532 DUMONT RAPHAEL S 17 04:06:58 06:55 8.68
34 522 DELVAUX GARY S 18 04:06:58 06:55 8.68
35 603 VANROBAEYS DOMINIQUE S 19 04:07:04 06:55 8.67
36 662 DE POÏ ISABELLE A2 1 04:07:25 06:56 8.66
37 665 LIXON MARC V1 9 04:07:25 06:56 8.66
38 602 VANDEWALLE AURÉLIEN S 20 04:11:09 07:02 8.53
39 569 MICHOTTE DAMIEN S 21 04:11:09 07:02 8.53
40 563 LESCEUX JONATHAN S 22 04:12:16 07:04 8.49
41 588 SIMONSE EVA D 2 04:14:39 07:08 8.41
42 573 PEFFER VINCENT V2 7 04:14:55 07:08 8.41
43 667 RENOUARD LOIC S 23 04:15:49 07:10 8.38
44 528 DONNEAU MAXIME S 24 04:15:49 07:10 8.38
45 655 PIRSON STEPHANE V2 8 04:18:12 07:14 8.30
46 633 DANDOIS YANNICK V1 10 04:19:37 07:16 8.25
47 631 ZUNE FABRICE V1 11 04:19:40 07:16 8.25
48 668 DE MAN PAUL V2 9 04:19:49 07:17 8.25
49 619 VERELLEN FRANKY V1 12 04:20:22 07:17 8.23
50 604 VERRIEST GAETAN S 25 04:20:34 07:18 8.22
51 628 DARGENTON LUDIVINE A1 2 04:20:44 07:18 8.22
52 519 DE HEPCEE BRUNO V2 10 04:21:59 07:20 8.18
53 521 DELVAL TANGUY S 26 04:22:02 07:20 8.18
54 659 DANIELS JEAN-MARC V2 11 04:22:46 07:21 8.15
55 575 PIRET PASCAL V2 12 04:25:04 07:25 8.08
56 531 DOZIN OLIVIER V1 13 04:25:04 07:25 8.08
57 527 DOBBELAER HEATHER D 3 04:26:00 07:27 8.06
58 671 CORDARO FABRICE S 27 04:26:06 07:27 8.05
59 586 SCHOUTEN JAN V1 14 04:26:40 07:28 8.04
60 502 ANDRIES JAN S 28 04:29:17 07:32 7.96
61 506 BERRENS THIJS S 29 04:30:41 07:35 7.92
62 612 DISPAS CÉLINE A1 3 04:32:19 07:38 7.87
63 611 DIERENS DENNIS V1 15 04:32:19 07:38 7.87
64 670 VAN DEN BOSSCHE BRUNO V1 16 04:32:37 07:38 7.86
65 572 PALGEN OLIVIER V1 17 04:33:11 07:39 7.84
66 509 BROUWER JAN KEES V2 13 04:33:37 07:40 7.83
67 590 TEICHER MATHIEU V1 18 04:36:11 07:44 7.76
68 560 LEMOINE FANNY A1 4 04:36:37 07:45 7.75
69 504 AZZOLINI JÉRÉMY S 30 04:36:54 07:45 7.74
70 516 COURARD FABIAN V1 19 04:40:42 07:52 7.63
71 556 LECART VALÉRIE A1 5 04:40:43 07:52 7.63
72 651 MASCART SIMON S 31 04:40:43 07:52 7.63
73 536 FORTHOMME MICHEL V2 14 04:40:43 07:52 7.63
74 623 SEVRIN FABRICE V1 20 04:42:34 07:55 7.58
75 644 DEGUELDRE JEAN LOUIS V2 15 04:42:49 07:55 7.58
76 645 NOEL PHILIPPE V1 21 04:42:50 07:55 7.58
77 639 BASTIN ROBERT V1 22 04:42:50 07:55 7.58
78 621 DACO RAPHAEL S 32 04:43:05 07:56 7.57
79 505 BERGIERS BENJAMIN S 33 04:44:05 07:57 7.54
80 508 BORREMANS VALENTIN S 34 04:44:05 07:57 7.54
81 515 COBBEN SYLVAIN S 35 04:49:23 08:06 7.40
82 525 DESADELEER JEAN-FRANCOIS V1 23 04:49:33 08:06 7.40
83 630 PALUMBO PINO V3 1 04:50:29 08:08 7.38
84 629 CIULLA JOSEPH V2 16 04:50:29 08:08 7.38
85 559 LEJEUNE THIBAULT S 36 04:50:29 08:08 7.38
86 577 PIRSON FLORENCE D 4 04:51:11 08:09 7.36
87 578 PONDANT LAURIE D 5 04:51:11 08:09 7.36
88 605 VERSTAPPEN KIM A1 6 04:54:55 08:16 7.27
89 582 ROUFFIGNON VINCENT V1 24 04:54:55 08:16 7.27
90 526 DEVILLET STÉPHANE V1 25 04:55:46 08:17 7.24
91 592 THIRY VIVIEN S 37 04:56:07 08:18 7.24
92 537 GEBHARDT KEVIN S 38 04:56:33 08:18 7.23
93 627 FOURNY PATRICK V1 26 04:56:55 08:19 7.22
94 580 RALET ELISE D 6 04:57:11 08:19 7.21
95 561 LEONARD LAURENT V1 27 04:58:53 08:22 7.17
96 638 BUYS BENJAMIN S 39 04:58:53 08:22 7.17
97 617 MOERLAND RON V1 28 05:01:17 08:26 7.11
98 643 DEMOULIN ANNE A1 7 05:03:07 08:29 7.07
99 647 GARROY MURIELLE A1 8 05:03:07 08:29 7.07
100 648 DALEM PIERRE YVES V2 17 05:03:07 08:29 7.07
101 597 VAN DEN BROECK MAURICE V3 2 05:05:48 08:34 7.01
102 610 WILMART GEOFFREY V1 29 05:08:27 08:38 6.95
103 641 LEBOUTTE PIERRE-EMMANUEL S 40 05:10:56 08:42 6.89
104 593 THYS ISABELLE A2 2 05:13:57 08:47 6.82
105 539 GIGOT VALÉRIE A2 3 05:13:57 08:47 6.82
106 594 VAN BROEKHOVEN ERWIN S 41 05:15:20 08:50 6.79
107 634 ABAD LAMAS PATRICIA A2 4 05:29:56 09:14 6.49
108 635 DUBLET SERGE V3 3 05:31:04 09:16 6.47
109 557 LECLEIRE PATRICK V1 30 05:39:35 09:31 6.31
110 553 LAURENT CATHERINE A1 9 05:43:45 09:38 6.23
111 512 CARRERA NICOLE A1 10 05:43:45 09:38 6.23
112 576 PIRONNET ERIC V2 18 05:48:32 09:46 6.15
113 565 MARLIER PASCAL V2 19 05:49:23 09:47 6.13
114 562 LEROY DIDIER V1 31 05:49:23 09:47 6.13
115 583 SCHMIT SANDRINE A2 5 06:02:25 10:09 5.91
116 587 SEPULT FABRICE V1 32 06:02:25 10:09 5.91
117 567 MASURE BETTY A1 11 06:08:13 10:19 5.82
118 615 ANGELY GAETAN V4 1 06:20:24 10:39 5.63
119 640 MARTIN FLORENCE D 7 06:21:44 10:41 5.61
120 571 NEMANN BRUNO S 42 06:21:44 10:41 5.61
121 566 MASSIN RUDI V1 33 06:48:18 11:26 5.25
122 520 DELHAYE FABIENNE A2 6 06:48:18 11:26 5.25
123 624 EMPAIN DANIEL V1 34 06:48:18 11:26 5.25